Theta_e
300 296 293 296 298 296 296 293 294 295 298 295 297 296 295 296 298 298 297 298 297 297 299 300 301 302 302 303 304 306 308 310 313 313 313 312 311 312 313 313 312 311 311 313
296 292 297 299 298 295 295 292 292 296 296 294 293 294 295 295 296 299 298 297 297 297 298 298 299 300 301 301 303 303 304 307 310 312 312 312 311 310 310 311 307 307 307 309
292 294 298 295 295 293 293 292 292 292 295 293 292 292 292 294 295 296 298 299 298 297 296 297 296 297 298 297 298 299 301 304 307 311 311 311 312 310 307 305 305 303 303 306
294 296 295 294 293 294 290 295 295 292 291 287 294 287 291 293 292 293 295 296 296 295 295 295 295 295 295 294 296 298 299 301 302 307 307 307 305 302 301 302 301 300 300 301
291 293 293 292 293 296 292 296 295 295 292 291 289 287 293 292 290 291 294 295 296 296 295 293 294 292 293 295 295 297 297 298 299 301 303 303 300 300 299 299 298 299 299 299
294 295 296 295 296 296 297 294 293 294 292 284 290 288 290 289 292 295 295 295 295 293 293 291 292 292 292 294 295 295 295 294 296 297 299 299 298 297 297 297 297 298 298 297
291 291 294 295 292 295 295 291 284 283 283 282 288 287 291 293 294 296 295 294 294 294 291 290 291 290 290 291 292 293 293 291 292 293 294 294 294 294 294 294 294 295 294 293
286 284 291 294 294 291 291 290 285 278 279 283 286 283 290 289 290 292 295 295 293 290 290 288 289 289 288 288 289 289 289 288 289 289 289 290 290 290 290 291 291 291 291 291
286 287 291 293 295 296 291 288 293 286 282 283 287 288 292 287 286 290 291 290 289 288 287 287 287 286 286 286 287 287 287 286 286 286 286 286 287 287 287 287 288 288 289 288
290 285 289 291 294 293 294 296 287 289 280 278 284 285 288 286 286 286 286 287 288 287 287 286 285 284 284 284 284 284 284 284 284 285 285 285 285 285 285 286 285 286 287 287
291 288 285 290 289 290 291 290 291 290 288 281 280 286 292 290 290 287 287 288 287 285 285 286 284 283 283 283 282 282 282 282 281 282 282 282 283 283 283 283 284 284 285 285
291 289 284 286 290 292 294 291 292 286 283 286 285 286 288 288 289 289 288 287 287 286 286 284 283 282 281 281 281 281 281 281 281 281 281 281 281 281 281 281 282 283 283 284
291 287 283 283 287 288 287 291 293 293 288 285 283 287 287 287 288 289 287 286 285 285 284 283 281 281 281 280 280 280 280 280 280 280 280 280 280 280 280 280 281 281 282 282
293 289 286 282 285 290 285 288 291 291 286 287 287 290 288 286 287 287 287 286 285 284 283 282 281 281 280 280 280 279 279 280 280 280 279 279 279 279 280 280 280 280 281 281
292 284 287 288 288 287 288 288 289 288 291 287 290 290 293 292 288 288 288 286 284 283 282 281 280 280 279 279 279 279 279 279 279 279 279 279 279 279 279 279 279 279 279 280
292 285 286 282 287 285 284 287 289 290 291 291 291 290 290 291 291 287 286 285 284 283 283 282 281 280 279 278 278 278 278 279 279 278 278 278 278 278 278 278 278 278 278 278
288 287 283 281 286 284 280 284 287 289 291 291 287 292 286 286 287 288 286 285 285 285 284 282 281 280 279 279 279 278 278 278 278 278 277 277 277 277 277 277 277 277 277 277
285 285 286 282 283 275 286 291 291 288 289 292 292 293 293 292 290 290 289 287 286 286 284 283 282 281 280 280 279 279 278 278 277 277 276 277 277 276 276 276 276 276 277 276
292 287 283 281 280 284 287 285 286 286 286 292 291 293 293 286 287 288 290 290 289 287 286 284 282 282 280 279 279 277 277 277 276 275 275 275 276 275 275 275 275 275 275 276
290 290 285 283 279 277 286 289 290 292 283 293 292 292 293 286 285 293 288 289 289 288 286 283 282 281 280 279 278 276 275 275 274 275 275 275 275 275 275 274 274 274 275 275
282 284 281 282 281 285 288 287 292 283 285 293 293 293 290 288 293 292 289 288 289 286 284 282 281 279 279 278 277 275 275 274 275 274 274 273 273 273 274 274 274 274 274 273
281 281 281 283 281 278 287 288 286 291 287 288 289 293 291 291 288 288 287 286 285 282 281 280 278 278 278 277 276 275 274 275 274 273 272 272 272 273 273 272 272 272 273 272
278 284 284 286 285 286 289 291 292 287 288 287 287 289 291 287 285 286 285 285 283 281 279 279 278 277 276 276 276 274 274 273 272 271 270 270 271 272 272 272 271 272 272 272
281 278 278 284 287 284 285 286 286 286 287 287 286 288 287 285 284 284 284 282 280 279 278 278 277 276 274 275 275 275 272 272 270 269 269 269 269 270 270 272 272 272 272 272
283 279 278 278 283 281 283 287 288 285 286 285 285 285 285 284 282 281 280 279 279 279 277 278 276 275 275 275 274 273 271 270 269 269 269 269 270 269 270 271 271 271 272 273
279 283 280 281 285 284 287 287 286 284 284 285 283 281 283 283 281 280 279 279 278 277 277 276 276 276 274 274 272 271 270 270 269 269 269 269 270 269 270 270 269 272 272 272
Wind_Speed
4 7 9 11 9 2 5 5 7 5 3 7 14 12 9 7 7 8 8 6 6 5 4 6 7 8 8 9 9 8 7 6 3 3 4 5 6 7 7 8 10 11 10 11
6 13 8 8 8 5 7 3 5 6 3 2 5 12 9 10 8 8 9 8 8 6 5 5 6 7 9 9 9 8 8 8 6 4 5 4 6 6 5 6 9 11 11 11
12 1 11 9 9 9 6 10 9 4 8 1 2 9 8 8 8 9 9 9 9 9 6 5 5 6 7 9 8 8 8 7 7 6 6 6 6 5 6 6 7 10 12 13
10 4 12 9 13 13 10 8 11 8 10 4 8 5 8 14 14 14 14 14 12 10 7 6 5 5 6 6 6 6 7 7 7 6 7 8 6 5 4 5 6 7 11 12
8 12 12 12 12 12 6 6 13 15 10 4 6 6 4 7 14 18 19 17 14 12 11 9 6 5 5 5 6 6 5 7 8 8 7 6 8 6 4 5 6 8 9 13
5 1 7 9 8 13 6 6 6 3 6 8 14 8 8 9 12 19 19 19 16 14 12 10 7 5 5 6 6 5 6 8 7 6 8 9 9 7 5 6 5 6 7 8
8 4 2 3 8 5 11 10 3 5 6 6 1 12 12 6 9 9 22 21 19 15 13 12 10 7 5 6 4 5 7 8 6 7 9 10 10 10 9 7 6 7 6 7
15 11 11 8 10 9 19 17 6 6 5 3 3 9 6 2 1 3 11 17 16 14 11 10 9 7 6 6 6 7 7 6 6 8 9 9 10 7 8 8 7 7 7 8
14 15 2 6 5 13 11 14 9 1 0 3 5 4 6 4 2 7 13 16 16 13 11 10 9 7 7 6 7 7 8 8 7 9 9 10 10 10 9 9 8 7 7 7
5 8 3 3 3 1 6 13 8 5 5 7 6 6 10 7 14 11 15 18 16 14 12 10 8 8 6 7 6 8 8 8 8 9 9 8 9 9 9 8 10 9 8 9
3 4 3 5 14 15 8 8 7 4 9 4 4 4 1 2 11 19 17 16 16 14 13 12 9 9 8 8 8 9 9 9 8 8 8 9 9 9 9 8 8 9 9 9
5 2 5 12 1 5 17 20 20 11 6 6 9 9 4 2 3 12 15 16 16 15 14 12 12 10 10 10 9 9 8 8 8 8 8 9 9 9 9 9 9 8 9 9
9 5 5 2 5 3 9 12 16 14 2 13 10 6 3 2 6 11 15 16 15 15 14 13 12 12 12 11 10 9 9 9 8 9 9 8 9 9 9 9 9 9 9 10
6 8 15 17 6 8 11 14 17 18 13 12 24 18 7 6 8 12 15 17 17 16 17 15 14 14 13 11 11 10 9 9 9 9 9 9 9 8 8 8 9 9 9 9
6 14 18 12 7 6 8 17 21 24 30 20 19 25 22 13 16 17 17 19 19 19 19 18 16 14 13 12 11 10 10 10 10 10 9 9 8 8 8 8 9 8 8 9
4 11 5 13 13 3 5 11 21 29 27 30 23 25 2 3 8 15 19 21 21 21 20 19 18 17 16 15 13 12 11 11 10 10 10 9 9 8 8 8 8 8 8 8
9 8 7 18 11 5 9 29 21 20 23 24 28 26 8 8 14 19 21 24 25 24 23 22 21 19 17 16 15 14 13 11 11 10 9 9 9 9 8 8 8 8 8 7
6 16 11 13 7 12 23 10 27 23 20 23 26 13 16 17 16 12 19 24 22 24 24 23 19 19 18 16 15 14 13 12 11 11 10 9 9 9 8 8 7 7 6 6
17 10 7 9 15 11 14 10 11 13 24 22 28 23 18 4 5 12 20 23 25 25 22 19 18 19 19 17 16 15 13 12 12 11 11 10 9 9 9 8 7 6 6 6
19 19 13 6 9 11 35 12 7 6 23 24 25 24 21 14 11 20 23 23 21 21 21 21 21 19 18 18 17 15 14 13 12 12 11 10 9 9 9 8 7 5 5 5
15 15 20 18 11 10 5 5 12 13 16 8 21 22 21 19 26 3 21 19 20 20 22 21 21 19 18 17 16 16 15 14 12 11 10 9 9 8 8 7 5 6 6 6
11 12 16 19 18 24 8 11 26 17 1 1 2 12 23 21 3 8 18 22 24 26 25 24 20 18 16 17 16 15 14 12 12 11 10 10 8 7 6 7 6 5 6 6
8 6 9 14 18 2 22 12 13 4 4 5 4 5 13 11 8 14 17 21 22 24 21 19 18 18 16 16 15 15 12 13 12 10 8 8 7 7 7 7 7 6 5 5
7 2 2 7 8 9 17 5 5 8 6 3 4 7 12 12 13 13 16 18 19 20 20 19 20 20 18 16 14 12 14 12 11 10 9 8 8 8 6 5 5 5 6 5
4 7 4 7 12 5 11 16 10 10 5 5 4 6 12 14 13 14 15 17 17 17 18 18 19 18 18 16 14 12 13 13 12 9 10 9 8 8 8 6 6 5 5 5
7 13 8 8 6 5 9 8 6 10 10 9 10 7 7 12 16 13 14 14 17 18 18 17 17 17 17 16 14 13 13 14 13 10 9 9 8 7 6 6 5 8 7 10
Wind_Direction
153 202 198 189 208 334 180 191 186 199 195 219 225 226 202 182 190 174 163 161 134 107 86 71 64 67 68 55 50 49 52 50 112 114 112 84 78 79 62 52 38 34 25 18
160 223 203 201 201 194 191 202 193 173 126 205 201 233 191 194 208 203 177 189 163 149 126 83 66 63 67 61 47 43 39 43 58 83 92 90 87 71 59 56 43 32 27 21
199 128 185 180 199 205 210 220 193 234 193 7 139 247 212 213 213 201 197 198 186 168 162 126 82 65 66 58 41 35 34 40 44 79 111 115 106 86 54 39 45 33 30 28
220 161 171 189 214 209 234 212 192 149 171 220 202 267 216 197 203 208 199 198 189 173 164 146 126 87 71 61 51 49 41 41 41 48 83 92 88 89 59 55 49 41 36 32
173 182 180 202 210 200 211 173 195 208 227 269 192 249 204 190 214 212 206 200 191 182 169 156 137 112 78 79 73 58 58 55 47 53 79 93 93 88 75 69 64 49 44 35
172 67 200 213 194 202 145 114 112 115 241 251 224 211 230 192 212 215 201 198 185 182 164 150 139 142 117 85 73 81 69 57 52 57 72 82 86 87 87 69 65 52 45 39
187 186 210 196 176 171 191 194 195 209 205 245 248 209 246 200 216 220 196 191 183 179 169 159 159 141 133 105 116 95 77 63 60 72 69 77 81 78 72 65 61 59 52 43
195 208 184 174 210 184 200 208 207 230 215 221 146 230 243 18 53 254 185 182 172 171 171 161 153 155 133 136 123 101 98 106 82 78 77 77 78 77 74 68 74 68 62 49
202 212 181 187 157 183 186 215 242 249 50 270 224 247 236 173 172 163 163 172 175 170 167 161 148 147 152 141 125 124 129 113 103 98 90 80 80 82 84 79 74 72 67 66
216 210 201 149 163 175 230 168 189 221 243 242 234 254 251 219 208 187 184 185 175 172 166 155 154 149 148 135 142 134 121 115 107 97 93 90 87 86 85 82 78 76 73 68
201 262 133 159 206 192 174 193 217 248 231 255 293 234 280 289 191 192 193 188 178 171 167 164 161 160 154 155 153 130 127 124 110 105 102 101 93 89 87 83 80 78 76 69
191 214 185 207 39 295 230 216 209 219 205 251 270 255 154 184 199 193 186 181 176 175 171 165 165 160 162 161 149 139 138 128 119 113 108 101 98 96 93 88 83 81 82 75
170 208 201 217 228 196 226 209 220 227 326 230 229 242 25 237 205 187 180 179 175 173 169 167 164 174 172 162 154 149 144 129 125 123 116 111 105 103 98 93 90 85 84 79
177 220 221 222 232 172 209 212 217 210 223 222 235 253 220 219 199 181 184 180 177 175 176 177 176 175 170 167 158 152 143 140 135 130 127 120 115 111 107 101 93 89 85 84
206 230 232 249 266 202 226 206 204 212 227 225 247 236 243 212 208 198 183 179 179 183 183 184 180 175 170 164 160 157 150 148 147 140 133 126 123 119 114 107 98 95 90 86
237 249 215 244 216 207 241 230 215 222 224 240 245 255 350 333 162 178 186 185 190 189 188 186 181 177 175 170 168 163 159 153 153 144 138 135 131 125 118 113 111 104 97 91
201 223 211 247 221 184 262 229 220 230 227 233 233 244 176 202 208 200 188 191 195 191 185 184 182 181 178 174 170 168 160 155 154 147 144 143 140 133 128 124 121 113 106 106
188 218 217 242 152 215 241 217 219 220 226 225 243 232 217 226 211 202 200 190 190 186 184 184 180 178 178 171 170 160 159 160 156 153 151 151 148 138 137 134 129 129 128 118
213 194 229 230 222 248 267 198 193 200 243 227 234 226 226 119 125 233 200 200 195 185 178 176 172 171 169 169 165 161 162 162 162 162 160 158 155 149 149 147 144 137 139 134
213 215 209 193 233 224 241 199 154 113 265 223 216 223 202 150 213 236 186 193 187 176 174 169 167 166 166 169 164 163 165 168 171 168 162 158 159 159 157 152 150 145 139 133
203 208 217 218 227 255 188 142 134 180 251 153 206 214 179 200 220 117 168 176 177 169 166 163 164 167 166 160 163 168 169 177 166 158 155 155 159 160 157 150 151 152 148 146
217 208 214 215 218 238 146 152 178 217 331 194 225 204 197 214 53 150 164 163 165 165 163 165 164 167 162 163 163 166 174 160 157 155 157 161 161 161 157 154 155 159 159 153
237 254 235 206 212 146 177 195 212 154 160 198 219 218 194 171 163 157 158 162 165 163 162 163 163 157 162 167 171 166 161 157 155 154 156 160 161 163 163 168 166 165 171 170
238 82 227 292 202 207 203 227 210 177 188 195 225 187 168 163 156 154 153 157 160 163 164 162 159 163 166 171 170 167 154 152 149 153 161 163 166 167 178 183 183 182 180 177
179 163 182 273 286 327 266 229 202 186 172 170 163 174 169 151 159 156 157 159 161 162 162 166 166 167 167 165 163 151 152 151 157 160 167 172 178 184 182 196 193 198 196 198
196 225 216 248 205 247 300 288 202 175 184 181 162 156 166 160 156 158 161 162 161 163 164 166 167 163 162 165 159 155 157 161 159 165 174 179 179 184 188 188 190 216 220 213